Location: Les Chemineaux
(47.3024°N, 1.5104°E)
Time: 07:10:01
(UTC+00:00)

Terra - Pass Details

Date: 19 May 2025
Orbit: 690 x 691 km, 98.0° (Epoch: 18 June)

Event Time Altitude Azimuth Distance (km) Brightness Sun altitude
Exits shadow 20:50:08 10° 173° (S) 2,158 3.9 -11.5°
Reaches altitude 10° 20:50:11 10° 173° (S) 2,137 3.8 -11.5°
Maximum altitude 20:54:51 71° 258° (WSW) 734 2.0 -12.0°
Drops below altitude 10° 20:59:34 10° 342° (NNW) 2,154 5.5 -12.5°
Sets 21:01:50 0° 345° (NNW) 3,075 6.4 -12.8°
